CZ-4C R/B, 39411

Orbit data source: Space-Track

CZ-4C R/B, 39411 is space debris in SSO originally from a launch on Wed, 20 Nov 2013 UTC launched from the Taiyaun Space Center, China (TSC). Debris objects in space refer to the collection of defunct objects orbiting the Earth. Examples of debris include non-operational satellites, rocket bodies, and fragments generated from explosions, collisions, or faulty payload assembly.

Loading next visibility...
Identifier
39411, 2013-065B
Orbit
SSO
Country
Flag of CNCN / PRC
Related business
Manufacturer
SAST
Mission
Spacecraft
Bus & Motor
CZ-4 STAGE 3, Unknown motor
Mass
~1,000 kg wet, ~1,000 kg dry
Launch date (UTC)
2013-11-20 (13 years ago)
Launch vehicle
Unknown
Launch site
Taiyaun Space Center, China (TSC)
Object type
Payload
Rocket body
Debris
Shape & HBR
Cyl, 2.5 m
Radar Cross Section
20.385 m², Large (>1 m²)

Expand to show TLE details & history
Last TLE update: 2 days ago

TLE from 2 days ago
0 CZ-4C R/B
1 39411U 13065B   26171.42978964 -.00000012  00000-0  58747-4 0  9998
2 39411 100.4106 114.9224 0139919 198.3227 161.2831 13.43551104617024
Epoch: 2026-06-20T10:18Z
TLE epoch observation values (Epoch: 2026-06-20T10:18:53.824Z)
Latitude
-0.00006°
Longitude
51.55361°
Altitude
1,198.045 km
Speed
7.207 km/s
True Right ascension
07h 39m 41s
True Declination
0° 00' 00"
Sunlit
Object was in daylight at epoch
Visualization orbit readout
Latitude
Unknown
Longitude
Unknown
Altitude
Unknown
Speed
Unknown
Apparent Right ascension
Unknown
Apparent Declination
Unknown
Sunlit
N/A
Visualization observer readout
Local Sidereal Time
23:08:13
Azimuth
Unknown
Elevation
Unknown
Doppler factor
Unknown
Orbital elements
Apogee altitude
1,197.968 km
Perigee altitude
988.886 km
Semi-major axis
7,471.564 km
Eccentricity
0.01399
Inclination
100.4106°
RAAN
114.9224°
Arg. of periapsis
198.3227°
True anomaly
161.78921°
Mean anomaly
161.2831°
Eccentric anomaly
161.53698°
Mean motion
3.36067 °/min
Orbital period
107.12 mins
BSTAR
0.000058747
Loading maneuver chart data...
Computing Atmospheric mass density...
Loading historical data...
Loading historical data...
Loading historical data...
Loading historical data...
Loading historical data...
Loading historical data...
Loading historical data...

Documentation

Showing up to 5 results
|